Theta_e
306 306 306 306 306 307 308 309 312 311 307 307 307 308 308 309 310 312 314 317 320 318 321 320 317 320 317 318 318 315 315 314 317 319 340 338 340 336 338 341 343 342 352 352 353
306 306 306 306 306 306 307 309 311 313 310 308 308 308 310 311 312 314 317 319 322 322 321 317 317 320 315 318 317 317 314 318 317 323 340 339 339 338 343 345 351 351 347 349 354
306 306 306 306 306 306 307 308 310 313 311 310 309 310 312 313 320 319 324 319 319 320 319 319 320 321 319 317 318 317 317 318 319 318 335 339 339 337 349 353 352 351 348 348 350
306 306 305 306 306 306 306 308 309 313 313 311 310 311 313 313 325 324 325 321 320 318 320 321 320 320 318 318 316 319 317 318 319 318 329 337 338 345 347 349 348 347 345 344 342
306 305 305 305 306 306 306 308 310 313 314 312 311 312 313 320 316 321 322 321 319 320 320 320 322 321 319 319 318 317 318 317 316 316 322 331 331 338 345 346 345 345 345 343 333
305 305 305 305 306 306 307 309 310 313 315 313 313 313 316 314 317 324 321 320 321 320 321 319 321 320 320 318 317 318 318 318 319 321 323 329 335 341 345 343 344 344 342 331 324
305 305 305 305 306 306 307 310 310 313 316 314 314 314 320 315 319 324 320 321 321 322 321 322 322 320 320 321 320 321 320 319 321 322 324 325 337 344 342 342 342 341 339 326 324
304 305 305 306 306 306 307 311 310 314 315 315 313 318 317 315 318 320 321 322 321 321 322 323 322 321 321 320 319 322 318 319 320 321 325 326 329 337 339 340 340 338 335 325 325
304 304 305 306 306 307 308 312 311 315 315 314 315 318 317 321 321 320 321 323 323 322 322 322 321 320 318 319 318 318 319 321 320 320 325 327 328 336 329 336 334 333 329 325 324
304 304 305 306 307 307 309 314 315 318 317 318 319 319 318 322 323 323 323 323 322 321 321 321 315 316 314 316 320 321 322 319 319 320 323 326 326 324 326 332 332 330 328 325 325
303 304 305 306 307 307 315 318 317 321 321 318 318 321 322 323 324 322 322 322 323 322 320 320 319 318 316 316 319 320 321 322 321 321 321 324 324 323 323 329 330 329 328 326 325
303 304 304 305 307 312 312 319 320 318 315 319 321 320 321 322 326 322 321 322 321 321 321 321 320 319 319 319 320 321 321 320 320 322 319 320 322 321 321 326 328 329 327 327 325
302 303 303 304 307 315 310 317 318 320 317 318 319 320 321 324 326 322 319 320 322 321 321 321 322 323 323 323 323 323 321 322 323 322 322 321 322 324 323 324 324 327 328 327 326
302 302 302 302 309 307 315 317 319 319 318 321 319 317 319 324 324 323 321 321 321 321 321 320 321 323 323 324 323 325 322 325 324 322 322 321 323 322 322 321 322 325 323 325 326
301 301 301 300 305 310 310 316 319 320 316 324 318 319 317 322 323 322 324 321 322 322 321 321 322 322 323 323 323 323 324 325 325 321 321 320 321 320 319 321 321 322 323 324 325
300 300 299 301 301 307 310 316 319 322 321 326 320 317 317 319 320 321 322 321 321 321 321 320 320 322 322 323 323 323 323 320 320 319 322 320 320 319 319 321 323 324 325 326 332
298 299 298 299 304 309 311 316 318 324 323 326 323 318 317 319 319 320 322 321 320 321 320 320 321 321 322 322 321 320 319 321 323 322 323 320 326 322 322 325 325 330 336 336 336
297 298 300 301 303 308 314 317 323 323 323 324 325 321 320 320 319 320 321 321 320 320 320 321 322 322 323 321 320 320 319 324 324 326 325 323 327 326 326 322 329 330 333 333 332
297 301 305 307 305 310 314 321 319 322 324 323 323 323 322 320 320 319 320 321 321 319 320 322 324 324 323 324 320 321 322 320 321 323 324 322 324 328 328 330 328 333 331 330 327
303 305 308 314 309 314 316 321 320 321 321 321 322 325 323 323 323 319 318 322 324 322 319 321 323 322 324 320 320 319 319 320 320 325 326 324 326 331 332 330 328 331 331 329 325
305 309 316 312 312 314 319 319 319 319 319 321 323 323 323 325 326 325 321 325 325 323 320 320 321 323 324 324 321 320 320 319 318 324 325 326 326 331 332 329 330 328 329 326 322
302 310 316 317 316 315 317 319 318 318 321 321 321 322 322 324 325 326 330 328 326 326 327 325 321 323 324 324 324 325 328 327 327 329 328 329 328 329 328 329 330 330 329 325 321
299 305 314 317 317 316 315 319 319 318 320 323 323 322 322 322 323 326 327 326 326 325 327 324 326 324 324 322 324 329 329 328 326 325 332 329 328 330 329 330 332 330 326 321 318
300 311 309 312 312 315 317 316 319 323 323 322 322 322 323 323 321 324 324 326 325 323 327 326 327 324 326 324 328 329 329 328 326 327 327 330 329 330 329 330 333 330 325 322 318
299 307 312 315 315 316 315 316 317 318 322 319 321 322 323 324 323 324 325 323 325 329 324 320 323 327 328 329 328 328 330 329 328 326 327 326 327 326 329 331 331 328 324 324 321
301 307 308 311 312 315 317 321 319 318 322 322 320 321 322 327 328 333 331 331 331 325 325 320 323 326 329 328 327 328 326 327 327 327 327 326 326 323 326 328 329 329 326 323 319
306 306 306 310 311 310 312 315 316 315 318 320 321 323 326 326 324 324 326 325 326 329 327 326 326 327 331 327 326 326 325 324 326 326 325 328 325 327 327 327 328 330 329 321 316
Wind_Speed
26 25 25 25 25 25 23 19 15 10 9 8 8 9 9 11 13 12 8 11 5 10 7 8 9 12 4 3 4 4 3 1 3 0 5 7 5 7 2 6 3 5 8 19 28
26 26 25 26 25 25 24 20 16 11 9 8 8 8 9 11 13 13 19 13 9 9 14 8 3 4 3 3 2 4 3 5 7 6 11 7 1 10 6 8 6 13 12 25 30
27 27 26 26 26 25 26 21 16 12 8 7 7 6 8 9 4 8 1 20 15 10 10 4 5 2 4 2 3 2 5 5 13 10 16 17 15 5 13 6 20 22 20 18 22
28 27 27 26 26 26 27 23 16 12 7 6 5 5 7 4 3 5 3 12 14 11 7 2 3 2 4 5 3 2 8 6 13 6 10 20 16 9 6 9 17 19 19 16 13
29 28 28 28 27 27 29 24 15 12 7 5 4 3 3 1 9 5 6 12 13 11 7 2 1 1 3 3 2 7 10 8 11 10 4 6 8 14 10 16 16 15 14 13 7
30 30 29 29 29 28 29 23 14 10 7 5 3 2 1 4 6 10 13 15 12 13 5 5 5 7 6 5 4 6 8 9 6 3 1 10 6 7 10 18 16 16 13 10 14
30 31 31 31 30 30 30 23 12 9 6 4 2 2 2 13 5 10 17 17 16 14 4 11 11 3 0 8 2 5 6 6 3 2 2 11 4 10 18 18 19 15 11 11 13
31 31 32 32 31 31 31 20 11 8 4 2 2 3 7 8 13 9 15 14 14 16 18 18 5 0 2 3 8 6 4 3 5 4 1 6 5 7 16 18 16 13 9 15 14
32 33 33 33 32 33 31 17 8 3 2 2 2 3 9 10 10 22 20 12 18 20 22 13 3 1 7 4 5 6 2 1 8 5 5 4 6 19 10 16 14 12 9 17 14
32 34 34 34 32 35 26 14 4 2 2 2 3 3 7 5 6 15 24 28 6 4 4 2 5 3 4 5 4 4 4 5 5 6 1 3 8 13 14 15 17 14 12 18 18
32 34 35 35 30 32 20 3 4 2 4 8 6 5 8 8 5 10 24 17 3 3 5 4 3 6 9 7 8 3 3 7 8 8 9 14 8 9 13 12 15 16 13 17 19
32 33 35 35 33 14 13 4 7 7 7 11 15 13 28 10 5 8 11 8 4 4 1 5 7 11 7 7 6 6 9 11 9 5 7 6 10 9 8 10 15 18 16 17 14
32 33 36 35 24 2 20 6 25 12 3 7 11 8 9 10 8 10 11 6 5 5 5 7 10 3 6 11 7 6 5 4 7 3 3 5 5 2 5 5 8 14 20 16 19
32 32 34 38 4 24 10 23 22 12 3 7 5 8 5 7 5 13 17 8 4 10 6 7 13 11 8 10 8 3 4 3 6 6 1 3 3 4 4 8 8 15 9 14 15
32 32 32 26 19 9 12 22 21 3 2 3 5 6 8 9 2 7 20 4 8 7 6 9 5 5 4 7 7 7 0 2 2 4 3 6 5 7 3 7 8 9 17 18 18
32 31 32 16 18 14 16 21 5 4 6 4 7 7 7 8 5 3 6 3 7 6 4 8 5 4 5 4 2 1 5 8 5 3 4 5 5 5 5 4 6 7 8 5 14
33 33 31 22 7 6 18 4 4 3 5 3 3 8 8 8 13 7 7 5 7 5 5 6 11 5 3 5 3 7 7 3 4 4 5 7 3 7 8 2 6 10 15 16 20
35 35 25 24 20 8 6 4 3 6 6 6 6 5 9 8 10 8 8 8 5 5 3 4 8 4 3 7 10 5 8 6 6 4 4 6 3 2 5 9 10 13 17 19 18
36 25 18 16 11 10 4 3 7 5 3 8 13 5 4 4 6 9 10 11 10 11 10 6 7 1 8 4 10 5 3 7 6 3 4 3 4 3 8 17 11 11 17 16 18
22 14 14 4 15 10 4 5 6 4 6 4 3 4 4 4 5 1 9 9 12 14 7 8 4 11 9 4 2 8 6 2 3 2 3 4 1 2 12 13 8 8 6 14 15
7 4 5 19 16 4 4 6 5 8 5 4 6 4 4 4 2 3 5 2 7 14 11 6 5 11 2 2 3 3 3 6 5 4 6 2 3 1 1 4 4 8 8 10 12
6 2 1 25 3 2 3 4 5 12 6 7 10 2 3 3 3 3 5 4 3 3 8 5 6 5 8 4 8 5 4 5 5 2 2 3 5 5 3 8 15 10 6 9 12
3 4 3 9 3 3 5 6 7 14 12 5 3 3 2 3 2 1 2 4 4 4 5 4 2 2 6 5 4 6 1 5 7 3 4 5 5 5 5 7 10 15 16 13 13
2 3 4 3 1 5 1 6 6 6 11 8 3 2 3 3 3 3 4 3 2 3 5 7 3 6 7 4 3 1 2 4 6 3 4 5 4 5 2 3 7 14 18 18 13
1 4 2 2 3 5 3 5 6 5 4 1 2 5 4 1 4 2 3 5 4 4 4 5 3 3 3 1 2 4 5 5 4 6 6 8 7 6 9 9 8 11 17 19 18
1 2 5 4 4 3 4 3 9 8 3 7 1 4 3 5 3 2 1 4 3 3 4 4 2 3 2 0 4 2 5 8 9 5 4 1 6 4 6 4 7 13 13 13 13
4 6 3 5 4 1 2 5 9 5 5 2 6 3 8 4 4 5 2 4 3 4 2 3 4 3 2 3 4 4 4 6 4 4 7 7 10 6 5 8 9 13 15 15 16
Wind_Direction
11 10 8 6 3 1 357 351 345 329 315 303 295 292 298 302 302 287 248 233 230 234 242 297 264 267 297 263 196 135 67 353 282 173 209 151 142 155 236 161 201 188 138 160 166
7 6 5 3 360 356 354 349 344 333 316 303 295 296 305 309 305 257 251 230 243 273 226 254 290 4 313 266 337 105 76 245 195 19 53 330 199 189 166 172 119 114 116 151 158
3 3 1 359 356 354 352 348 340 332 313 299 296 304 310 318 315 248 288 221 229 230 223 230 249 140 229 61 254 181 206 239 277 173 150 210 207 209 140 163 151 149 149 155 162
1 359 357 354 353 350 351 345 336 330 309 291 290 309 313 313 257 303 219 188 204 212 210 211 53 196 220 213 180 230 253 227 270 244 161 199 186 167 171 174 157 151 156 159 162
359 356 354 352 349 346 348 342 332 327 305 280 286 317 321 317 251 262 173 169 186 199 216 165 356 164 262 262 352 188 260 255 236 238 223 123 163 158 172 153 151 152 165 172 144
355 353 352 349 346 343 343 338 326 321 302 270 271 287 176 267 261 246 192 183 197 204 205 170 222 214 263 262 166 291 290 261 219 310 129 112 111 95 164 154 153 164 183 136 139
352 350 348 347 345 342 341 334 321 317 290 265 252 190 222 238 270 205 192 200 205 211 202 236 251 244 317 329 239 291 312 349 1 325 107 119 71 148 163 160 165 175 177 147 136
349 347 345 343 342 340 338 333 319 313 274 255 227 172 246 259 209 197 201 223 234 243 245 264 282 7 72 286 359 338 41 41 282 338 339 97 198 168 168 165 170 169 159 148 156
346 345 342 340 340 338 335 329 310 292 253 221 196 185 266 307 204 220 215 220 235 250 266 267 42 80 5 64 0 0 226 258 298 219 199 127 205 185 182 169 168 177 160 162 165
344 343 339 338 338 338 333 327 279 210 200 227 254 348 267 259 198 199 201 222 209 266 342 346 48 29 12 72 225 267 9 318 269 296 235 221 225 155 184 170 176 186 172 176 175
342 340 337 335 335 337 337 355 17 29 203 207 200 250 290 1 291 191 201 216 205 98 180 270 102 233 246 207 226 240 243 256 259 256 194 211 187 217 179 186 183 191 187 183 188
340 338 336 332 334 340 4 352 272 290 292 232 242 239 259 267 304 243 193 163 155 213 265 356 247 229 236 263 253 267 267 273 285 263 161 179 216 215 155 202 192 194 200 194 188
337 337 336 331 334 24 332 323 348 347 290 276 218 215 230 162 222 232 147 163 169 211 240 202 247 311 219 265 265 251 228 237 229 320 24 110 335 210 233 210 213 209 204 199 190
334 335 336 336 354 333 305 343 352 341 23 273 214 239 196 171 286 209 171 148 213 194 221 237 260 246 260 250 187 245 202 235 45 46 325 30 259 317 298 306 199 233 226 217 204
330 332 332 342 305 307 322 341 342 44 339 230 182 184 161 152 196 217 181 109 184 205 128 244 280 302 289 235 174 213 122 52 66 85 71 346 83 270 339 311 292 266 227 215 208
324 325 327 327 300 286 331 335 352 53 255 298 155 163 120 175 246 49 140 119 187 210 210 240 273 226 237 309 219 131 75 36 46 63 20 258 134 275 260 264 328 344 342 135 101
320 317 313 296 243 308 328 10 62 171 321 255 182 149 175 169 220 194 174 177 176 179 279 307 279 269 216 249 355 76 62 5 358 6 224 297 22 243 303 344 116 83 69 76 92
318 315 306 276 268 288 348 59 156 236 272 304 335 217 180 165 209 186 170 207 251 123 130 197 308 204 231 189 197 177 152 153 204 189 248 320 273 267 344 25 56 91 99 97 91
321 319 295 278 217 206 80 115 210 222 327 342 324 155 210 197 177 179 186 196 200 179 185 170 258 261 299 251 176 190 147 187 134 48 73 239 300 322 14 33 13 104 108 111 113
324 318 285 178 164 143 86 224 231 237 348 13 280 43 75 21 38 208 188 199 211 192 162 217 250 264 274 49 7 138 164 79 21 134 237 278 248 358 3 14 12 46 32 113 111
316 339 298 149 151 62 173 234 280 272 291 244 318 350 23 53 14 270 223 313 209 201 182 175 143 268 40 40 204 8 36 56 112 107 174 185 273 270 274 302 19 155 126 122 115
341 306 238 152 92 172 196 219 250 269 271 280 228 246 143 48 349 324 16 25 339 104 141 172 154 218 222 29 89 81 137 113 110 296 85 138 259 260 151 59 62 50 95 107 93
332 268 263 221 168 253 283 270 245 269 271 271 213 155 70 82 345 278 253 265 131 98 153 195 71 76 355 7 17 105 138 111 111 99 177 135 254 204 243 111 110 98 90 64 55
350 321 310 60 166 162 253 266 251 286 251 215 157 105 55 360 183 270 323 333 72 111 131 91 107 141 188 184 162 28 174 178 123 119 212 217 239 218 239 194 155 132 128 122 104
179 252 251 307 321 331 206 282 303 321 341 285 132 155 140 187 344 316 315 0 17 131 61 94 137 105 126 332 100 169 230 187 192 200 157 242 213 215 187 197 173 152 141 145 146
238 33 342 291 274 281 192 261 230 272 258 313 298 220 118 111 150 46 336 49 7 339 28 9 167 119 101 234 337 249 191 215 225 210 241 180 271 194 173 147 161 155 145 142 143
323 333 113 279 317 17 255 342 313 332 300 233 247 122 96 136 185 172 146 141 126 107 58 65 101 70 302 356 11 3 222 250 200 199 175 185 224 145 186 196 178 163 172 152 137